Location: Mt. Bigelow
(32.4165°N, 110.7345°W)
Time: 15:14:58
(UTC-07:00)

Envisat - Visible Passes

Search period start: 17 June 2018 00:00
Search period end: 27 June 2018 00:00
Orbit: 764 x 766 km, 98.2° (Epoch: 17 June)

Date Brightness Start Highest point End Pass type
(mag) Time Alt. Az. Time Alt. Az. Time Alt. Az.
17 Jun 4.0 20:09:58 10° S 20:14:51 48° W 20:19:45 10° NNW visible
19 Jun 5.0 20:36:22 10° SSW 20:40:31 26° W 20:44:42 10° NW visible
20 Jun 3.5 19:58:40 10° S 20:03:40 63° W 20:08:42 10° NNW visible
21 Jun 5.7 21:03:50 10° WSW 21:06:16 13° W 21:08:42 10° WNW visible
22 Jun 4.6 20:24:46 10° SSW 20:29:18 33° W 20:33:51 10° NNW visible
24 Jun 5.5 20:51:40 10° SW 20:55:01 18° W 20:58:24 10° NW visible
25 Jun 4.2 20:13:19 10° S 20:18:06 43° W 20:22:56 10° NNW visible
